Year,Month,Day,Hour,Minute,Value (Times are PST for temperature in C)
2016,08,18,00,00,17.40
2016,08,18,00,01,17.40
2016,08,18,00,02,17.40
2016,08,18,00,03,17.30
2016,08,18,00,04,17.30
2016,08,18,00,05,17.30
2016,08,18,00,06,17.30
2016,08,18,00,07,17.30
2016,08,18,00,08,17.30
2016,08,18,00,09,17.30
2016,08,18,00,10,17.30
2016,08,18,00,11,17.20
2016,08,18,00,12,17.20
2016,08,18,00,13,17.20
2016,08,18,00,14,17.20
2016,08,18,00,15,17.20
2016,08,18,00,16,17.10
2016,08,18,00,17,17.10
2016,08,18,00,18,17.10
2016,08,18,00,19,17.10
2016,08,18,00,20,17.10
2016,08,18,00,21,17.00
2016,08,18,00,22,17.00
2016,08,18,00,23,17.00
2016,08,18,00,24,17.00
2016,08,18,00,25,17.00
2016,08,18,00,26,16.90
2016,08,18,00,27,16.90
2016,08,18,00,28,16.90
2016,08,18,00,29,16.90
2016,08,18,00,30,16.90
2016,08,18,00,31,16.90
2016,08,18,00,32,16.90
2016,08,18,00,33,16.80
2016,08,18,00,34,16.80
2016,08,18,00,35,16.80
2016,08,18,00,36,16.80
2016,08,18,00,37,16.80
2016,08,18,00,38,16.80
2016,08,18,00,39,16.80
2016,08,18,00,40,16.80
2016,08,18,00,41,16.70
2016,08,18,00,42,16.70
2016,08,18,00,43,16.70
2016,08,18,00,44,16.70
2016,08,18,00,45,16.70
2016,08,18,00,46,16.70
2016,08,18,00,47,16.70
2016,08,18,00,48,16.70
2016,08,18,00,49,16.60
2016,08,18,00,50,16.60
2016,08,18,00,51,16.60
2016,08,18,00,52,16.60
2016,08,18,00,53,16.60
2016,08,18,00,54,16.60
2016,08,18,00,55,16.60
2016,08,18,00,56,16.60
2016,08,18,00,57,16.60
2016,08,18,00,58,16.60
2016,08,18,00,59,16.60
2016,08,18,01,00,16.60
2016,08,18,01,01,16.60
2016,08,18,01,02,16.70
2016,08,18,01,03,16.60
2016,08,18,01,04,16.70
2016,08,18,01,05,16.70
2016,08,18,01,06,16.70
2016,08,18,01,07,16.70
2016,08,18,01,08,16.60
2016,08,18,01,09,16.60
2016,08,18,01,10,16.60
2016,08,18,01,11,16.60
2016,08,18,01,12,16.60
2016,08,18,01,13,16.60
2016,08,18,01,14,16.60
2016,08,18,01,15,16.60
2016,08,18,01,16,16.60
2016,08,18,01,17,16.60
2016,08,18,01,18,16.50
2016,08,18,01,19,16.50
2016,08,18,01,20,16.60
2016,08,18,01,21,16.60
2016,08,18,01,22,16.60
2016,08,18,01,23,16.60
2016,08,18,01,24,16.50
2016,08,18,01,25,16.50
2016,08,18,01,26,16.50
2016,08,18,01,27,16.50
2016,08,18,01,28,16.50
2016,08,18,01,29,16.50
2016,08,18,01,30,16.50
2016,08,18,01,31,16.50
2016,08,18,01,32,16.50
2016,08,18,01,33,16.50
2016,08,18,01,34,16.50
2016,08,18,01,35,16.50
2016,08,18,01,36,16.50
2016,08,18,01,37,16.50
2016,08,18,01,38,16.40
2016,08,18,01,39,16.40
2016,08,18,01,40,16.40
2016,08,18,01,41,16.40
2016,08,18,01,42,16.40
2016,08,18,01,43,16.40
2016,08,18,01,44,16.40
2016,08,18,01,45,16.30
2016,08,18,01,46,16.30
2016,08,18,01,47,16.30
2016,08,18,01,48,16.30
2016,08,18,01,49,16.30
2016,08,18,01,50,16.30
2016,08,18,01,51,16.20
2016,08,18,01,52,16.20
2016,08,18,01,53,16.20
2016,08,18,01,54,16.20
2016,08,18,01,55,16.20
2016,08,18,01,56,16.20
2016,08,18,01,57,16.20
2016,08,18,01,58,16.20
2016,08,18,01,59,16.20
2016,08,18,02,00,16.10
2016,08,18,02,01,16.10
2016,08,18,02,02,16.10
2016,08,18,02,03,16.10
2016,08,18,02,04,16.10
2016,08,18,02,05,16.10
2016,08,18,02,06,16.10
2016,08,18,02,07,16.10
2016,08,18,02,08,16.10
2016,08,18,02,09,16.10
2016,08,18,02,10,16.00
2016,08,18,02,11,16.00
2016,08,18,02,12,16.00
2016,08,18,02,13,16.00
2016,08,18,02,14,15.90
2016,08,18,02,15,15.90
2016,08,18,02,16,15.90
2016,08,18,02,17,15.90
2016,08,18,02,18,15.90
2016,08,18,02,19,15.90
2016,08,18,02,20,15.80
2016,08,18,02,21,15.80
2016,08,18,02,22,15.80
2016,08,18,02,23,15.80
2016,08,18,02,24,15.80
2016,08,18,02,25,15.80
2016,08,18,02,26,15.80
2016,08,18,02,27,15.80
2016,08,18,02,28,15.80
2016,08,18,02,29,15.80
2016,08,18,02,30,15.70
2016,08,18,02,31,15.70
2016,08,18,02,32,15.70
2016,08,18,02,33,15.70
2016,08,18,02,34,15.70
2016,08,18,02,35,15.70
2016,08,18,02,36,15.70
2016,08,18,02,37,15.70
2016,08,18,02,38,15.60
2016,08,18,02,39,15.60
2016,08,18,02,40,15.60
2016,08,18,02,41,15.60
2016,08,18,02,42,15.60
2016,08,18,02,43,15.60
2016,08,18,02,44,15.60
2016,08,18,02,45,15.60
2016,08,18,02,46,15.60
2016,08,18,02,47,15.60
2016,08,18,02,48,15.60
2016,08,18,02,49,15.60
2016,08,18,02,50,15.60
2016,08,18,02,51,15.60
2016,08,18,02,52,15.50
2016,08,18,02,53,15.50
2016,08,18,02,54,15.50
2016,08,18,02,55,15.50
2016,08,18,02,56,15.50
2016,08,18,02,57,15.50
2016,08,18,02,58,15.50
2016,08,18,02,59,15.50
2016,08,18,03,00,15.50
2016,08,18,03,01,15.40
2016,08,18,03,02,15.40
2016,08,18,03,03,15.40
2016,08,18,03,04,15.40
2016,08,18,03,05,15.40
2016,08,18,03,06,15.40
2016,08,18,03,07,15.40
2016,08,18,03,08,15.40
2016,08,18,03,09,15.40
2016,08,18,03,10,15.40
2016,08,18,03,11,15.40
2016,08,18,03,12,15.40
2016,08,18,03,13,15.40
2016,08,18,03,14,15.40
2016,08,18,03,15,15.40
2016,08,18,03,16,15.40
2016,08,18,03,17,15.40
2016,08,18,03,18,15.40
2016,08,18,03,19,15.40
2016,08,18,03,20,15.40
2016,08,18,03,21,15.40
2016,08,18,03,22,15.40
2016,08,18,03,23,15.40
2016,08,18,03,24,15.40
2016,08,18,03,25,15.40
2016,08,18,03,26,15.40
2016,08,18,03,27,15.40
2016,08,18,03,28,15.40
2016,08,18,03,29,15.40
2016,08,18,03,30,15.40
2016,08,18,03,31,15.40
2016,08,18,03,32,15.50
2016,08,18,03,33,15.50
2016,08,18,03,34,15.50
2016,08,18,03,35,15.50
2016,08,18,03,36,15.50
2016,08,18,03,37,15.40
2016,08,18,03,38,15.40
2016,08,18,03,39,15.40
2016,08,18,03,40,15.40
2016,08,18,03,41,15.40
2016,08,18,03,42,15.40
2016,08,18,03,43,15.40
2016,08,18,03,44,15.40
2016,08,18,03,45,15.40
2016,08,18,03,46,15.40
2016,08,18,03,47,15.40
2016,08,18,03,48,15.40
2016,08,18,03,49,15.40
2016,08,18,03,50,15.40
2016,08,18,03,51,15.40
2016,08,18,03,52,15.40
2016,08,18,03,53,15.40
2016,08,18,03,54,15.40
2016,08,18,03,55,15.40
2016,08,18,03,56,15.40
2016,08,18,03,57,15.40
2016,08,18,03,58,15.40
2016,08,18,03,59,15.40
2016,08,18,04,00,15.40
2016,08,18,04,01,15.40
2016,08,18,04,02,15.40
2016,08,18,04,03,15.30
2016,08,18,04,04,15.30
2016,08,18,04,05,15.30
2016,08,18,04,06,15.30
2016,08,18,04,07,15.30
2016,08,18,04,08,15.30
2016,08,18,04,09,15.30
2016,08,18,04,10,15.30
2016,08,18,04,11,15.20
2016,08,18,04,12,15.20
2016,08,18,04,13,15.20
2016,08,18,04,14,15.20
2016,08,18,04,15,15.20
2016,08,18,04,16,15.20
2016,08,18,04,17,15.20
2016,08,18,04,18,15.20
2016,08,18,04,19,15.20
2016,08,18,04,20,15.20
2016,08,18,04,21,15.20
2016,08,18,04,22,15.20
2016,08,18,04,23,15.20
2016,08,18,04,24,15.10
2016,08,18,04,25,15.10
2016,08,18,04,26,15.10
2016,08,18,04,27,15.10
2016,08,18,04,28,15.10
2016,08,18,04,29,15.10
2016,08,18,04,30,15.10
2016,08,18,04,31,15.00
2016,08,18,04,32,15.00
2016,08,18,04,33,15.00
2016,08,18,04,34,15.00
2016,08,18,04,35,15.00
2016,08,18,04,36,14.90
2016,08,18,04,37,14.90
2016,08,18,04,38,14.90
2016,08,18,04,39,14.90
2016,08,18,04,40,14.90
2016,08,18,04,41,14.90
2016,08,18,04,42,14.90
2016,08,18,04,43,14.90
2016,08,18,04,44,14.90
2016,08,18,04,45,14.90
2016,08,18,04,46,14.90
2016,08,18,04,47,14.80
2016,08,18,04,48,14.80
2016,08,18,04,49,14.80
2016,08,18,04,50,14.80
2016,08,18,04,51,14.80
2016,08,18,04,52,14.80
2016,08,18,04,53,14.80
2016,08,18,04,54,14.80
2016,08,18,04,55,14.80
2016,08,18,04,56,14.80
2016,08,18,04,57,14.80
2016,08,18,04,58,14.80
2016,08,18,04,59,14.80
2016,08,18,05,00,14.80
2016,08,18,05,01,14.80
2016,08,18,05,02,14.80
2016,08,18,05,03,14.80
2016,08,18,05,04,14.80
2016,08,18,05,05,14.80
2016,08,18,05,06,14.80
2016,08,18,05,07,14.80
2016,08,18,05,08,14.80
2016,08,18,05,09,14.80
2016,08,18,05,10,14.80
2016,08,18,05,11,14.80
2016,08,18,05,12,14.80
2016,08,18,05,13,14.80
2016,08,18,05,14,14.80
2016,08,18,05,15,14.70
2016,08,18,05,16,14.70
2016,08,18,05,17,14.70
2016,08,18,05,18,14.70
2016,08,18,05,19,14.70
2016,08,18,05,20,14.70
2016,08,18,05,21,14.70
2016,08,18,05,22,14.70
2016,08,18,05,23,14.70
2016,08,18,05,24,14.60
2016,08,18,05,25,14.60
2016,08,18,05,26,14.60
2016,08,18,05,27,14.60
2016,08,18,05,28,14.60
2016,08,18,05,29,14.50
2016,08,18,05,30,14.50
2016,08,18,05,31,14.50
2016,08,18,05,32,14.40
2016,08,18,05,33,14.40
2016,08,18,05,34,14.40
2016,08,18,05,35,14.40
2016,08,18,05,36,14.40
2016,08,18,05,37,14.40
2016,08,18,05,38,14.30
2016,08,18,05,39,14.30
2016,08,18,05,40,14.30
2016,08,18,05,41,14.30
2016,08,18,05,42,14.30
2016,08,18,05,43,14.30
2016,08,18,05,44,14.30
2016,08,18,05,45,14.30
2016,08,18,05,46,14.30
2016,08,18,05,47,14.30
2016,08,18,05,48,14.30
2016,08,18,05,49,14.30
2016,08,18,05,50,14.20
2016,08,18,05,51,14.20
2016,08,18,05,52,14.20
2016,08,18,05,53,14.20
2016,08,18,05,54,14.20
2016,08,18,05,55,14.20
2016,08,18,05,56,14.20
2016,08,18,05,57,14.20
2016,08,18,05,58,14.20
2016,08,18,05,59,14.20
2016,08,18,06,00,14.10
2016,08,18,06,01,14.10
2016,08,18,06,02,14.10
2016,08,18,06,03,14.10
2016,08,18,06,04,14.10
2016,08,18,06,05,14.10
2016,08,18,06,06,14.10
2016,08,18,06,07,14.10
2016,08,18,06,08,14.10
2016,08,18,06,09,14.20
2016,08,18,06,10,14.20
2016,08,18,06,11,14.20
2016,08,18,06,12,14.20
2016,08,18,06,13,14.10
2016,08,18,06,14,14.10
2016,08,18,06,15,14.10
2016,08,18,06,16,14.10
2016,08,18,06,17,14.10
2016,08,18,06,18,14.10
2016,08,18,06,19,14.10
2016,08,18,06,20,14.10
2016,08,18,06,21,14.10
2016,08,18,06,22,14.10
2016,08,18,06,23,14.10
2016,08,18,06,24,14.10
2016,08,18,06,25,14.10
2016,08,18,06,26,14.10
2016,08,18,06,27,14.10
2016,08,18,06,28,14.00
2016,08,18,06,29,14.00
2016,08,18,06,30,14.10
2016,08,18,06,31,14.10
2016,08,18,06,32,14.10
2016,08,18,06,33,14.10
2016,08,18,06,34,14.10
2016,08,18,06,35,14.10
2016,08,18,06,36,14.10
2016,08,18,06,37,14.10
2016,08,18,06,38,14.10
2016,08,18,06,39,14.10
2016,08,18,06,40,14.10
2016,08,18,06,41,14.10
2016,08,18,06,42,14.20
2016,08,18,06,43,14.20
2016,08,18,06,44,14.20
2016,08,18,06,45,14.20
2016,08,18,06,46,14.20
2016,08,18,06,47,14.30
2016,08,18,06,48,14.30
2016,08,18,06,49,14.30
2016,08,18,06,50,14.30
2016,08,18,06,51,14.40
2016,08,18,06,52,14.40
2016,08,18,06,53,14.40
2016,08,18,06,54,14.50
2016,08,18,06,55,14.50
2016,08,18,06,56,14.50
2016,08,18,06,57,14.60
2016,08,18,06,58,14.60
2016,08,18,06,59,14.70
2016,08,18,07,00,14.80
2016,08,18,07,01,14.90
2016,08,18,07,02,15.00
2016,08,18,07,03,15.00
2016,08,18,07,04,15.10
2016,08,18,07,05,15.20
2016,08,18,07,06,15.30
2016,08,18,07,07,15.30
2016,08,18,07,08,15.40
2016,08,18,07,09,15.40
2016,08,18,07,10,15.50
2016,08,18,07,11,15.50
2016,08,18,07,12,15.60
2016,08,18,07,13,15.70
2016,08,18,07,14,15.80
2016,08,18,07,15,15.80
2016,08,18,07,16,15.90
2016,08,18,07,17,16.00
2016,08,18,07,18,16.10
2016,08,18,07,19,16.20
2016,08,18,07,20,16.30
2016,08,18,07,21,16.30
2016,08,18,07,22,16.40
2016,08,18,07,23,16.40
2016,08,18,07,24,16.40
2016,08,18,07,25,16.50
2016,08,18,07,26,16.50
2016,08,18,07,27,16.60
2016,08,18,07,28,16.70
2016,08,18,07,29,16.80
2016,08,18,07,30,16.80
2016,08,18,07,31,16.90
2016,08,18,07,32,17.00
2016,08,18,07,33,17.10
2016,08,18,07,34,17.20
2016,08,18,07,35,17.30
2016,08,18,07,36,17.50
2016,08,18,07,37,17.60
2016,08,18,07,38,17.70
2016,08,18,07,39,17.70
2016,08,18,07,40,17.80
2016,08,18,07,41,17.90
2016,08,18,07,42,17.90
2016,08,18,07,43,18.00
2016,08,18,07,44,18.10
2016,08,18,07,45,18.20
2016,08,18,07,46,18.30
2016,08,18,07,47,18.30
2016,08,18,07,48,18.40
2016,08,18,07,49,18.40
2016,08,18,07,50,18.40
2016,08,18,07,51,18.40
2016,08,18,07,52,18.40
2016,08,18,07,53,18.40
2016,08,18,07,54,18.40
2016,08,18,07,55,18.50
2016,08,18,07,56,18.50
2016,08,18,07,57,18.60
2016,08,18,07,58,18.60
2016,08,18,07,59,18.60
2016,08,18,08,00,18.70
2016,08,18,08,01,18.70
2016,08,18,08,02,18.80
2016,08,18,08,03,18.80
2016,08,18,08,04,18.80
2016,08,18,08,05,18.90
2016,08,18,08,06,18.90
2016,08,18,08,07,19.00
2016,08,18,08,08,19.10
2016,08,18,08,09,19.10
2016,08,18,08,10,19.20
2016,08,18,08,11,19.20
2016,08,18,08,12,19.20
2016,08,18,08,13,19.20
2016,08,18,08,14,19.20
2016,08,18,08,15,19.30
2016,08,18,08,16,19.30
2016,08,18,08,17,19.30
2016,08,18,08,18,19.30
2016,08,18,08,19,19.40
2016,08,18,08,20,19.40
2016,08,18,08,21,19.50
2016,08,18,08,22,19.60
2016,08,18,08,23,19.60
2016,08,18,08,24,19.60
2016,08,18,08,25,19.70
2016,08,18,08,26,19.70
2016,08,18,08,27,19.70
2016,08,18,08,28,19.70
2016,08,18,08,29,19.70
2016,08,18,08,30,19.80
2016,08,18,08,31,19.80
2016,08,18,08,32,19.80
2016,08,18,08,33,19.90
2016,08,18,08,34,19.90
2016,08,18,08,35,20.00
2016,08,18,08,36,20.00
2016,08,18,08,37,20.10
2016,08,18,08,38,20.10
2016,08,18,08,39,20.20
2016,08,18,08,40,20.20
2016,08,18,08,41,20.30
2016,08,18,08,42,20.40
2016,08,18,08,43,20.40
2016,08,18,08,44,20.50
2016,08,18,08,45,20.60
2016,08,18,08,46,20.60
2016,08,18,08,47,20.60
2016,08,18,08,48,20.70
2016,08,18,08,49,20.70
2016,08,18,08,50,20.70
2016,08,18,08,51,20.70
2016,08,18,08,52,20.80
2016,08,18,08,53,20.80
2016,08,18,08,54,20.80
2016,08,18,08,55,20.90
2016,08,18,08,56,20.90
2016,08,18,08,57,20.90
2016,08,18,08,58,21.00
2016,08,18,08,59,21.10
2016,08,18,09,00,21.20
2016,08,18,09,01,21.20
2016,08,18,09,02,21.30
2016,08,18,09,03,21.40
2016,08,18,09,04,21.50
2016,08,18,09,05,21.60
2016,08,18,09,06,21.70
2016,08,18,09,07,21.80
2016,08,18,09,08,21.90
2016,08,18,09,09,21.90
2016,08,18,09,10,22.00
2016,08,18,09,11,22.00
2016,08,18,09,12,22.10
2016,08,18,09,13,22.20
2016,08,18,09,14,22.20
2016,08,18,09,15,22.30
2016,08,18,09,16,22.40
2016,08,18,09,17,22.50
2016,08,18,09,18,22.60
2016,08,18,09,19,22.70
2016,08,18,09,20,22.80
2016,08,18,09,21,22.80
2016,08,18,09,22,23.00
2016,08,18,09,23,23.10
2016,08,18,09,24,23.20
2016,08,18,09,25,23.20
2016,08,18,09,26,23.30
2016,08,18,09,27,23.40
2016,08,18,09,28,23.40
2016,08,18,09,29,23.50
2016,08,18,09,30,23.50
2016,08,18,09,31,23.50
2016,08,18,09,32,23.50
2016,08,18,09,33,23.50
2016,08,18,09,34,23.50
2016,08,18,09,35,23.50
2016,08,18,09,36,23.60
2016,08,18,09,37,23.60
2016,08,18,09,38,23.70
2016,08,18,09,39,23.80
2016,08,18,09,40,23.90
2016,08,18,09,41,24.00
2016,08,18,09,42,24.00
2016,08,18,09,43,24.10
2016,08,18,09,44,24.20
2016,08,18,09,45,24.30
2016,08,18,09,46,24.40
2016,08,18,09,47,24.40
2016,08,18,09,48,24.50
2016,08,18,09,49,24.60
2016,08,18,09,50,24.60
2016,08,18,09,51,24.70
2016,08,18,09,52,24.80
2016,08,18,09,53,24.90
2016,08,18,09,54,24.90
2016,08,18,09,55,25.10
2016,08,18,09,56,25.20
2016,08,18,09,57,25.30
2016,08,18,09,58,25.40
2016,08,18,09,59,25.40
2016,08,18,10,00,25.50
2016,08,18,10,01,25.60
2016,08,18,10,02,25.60
2016,08,18,10,03,25.70
2016,08,18,10,04,25.70
2016,08,18,10,05,25.80
2016,08,18,10,06,25.90
2016,08,18,10,07,25.90
2016,08,18,10,08,25.90
2016,08,18,10,09,26.00
2016,08,18,10,10,26.00
2016,08,18,10,11,26.00
2016,08,18,10,12,26.10
2016,08,18,10,13,26.10
2016,08,18,10,14,26.10
2016,08,18,10,15,26.10
2016,08,18,10,16,26.10
2016,08,18,10,17,26.10
2016,08,18,10,18,26.20
2016,08,18,10,19,26.20
2016,08,18,10,20,26.30
2016,08,18,10,21,26.30
2016,08,18,10,22,26.40
2016,08,18,10,23,26.40
2016,08,18,10,24,26.50
2016,08,18,10,25,26.50
2016,08,18,10,26,26.40
2016,08,18,10,27,26.30
2016,08,18,10,28,26.30
2016,08,18,10,29,26.30
2016,08,18,10,30,26.30
2016,08,18,10,31,26.40
2016,08,18,10,32,26.50
2016,08,18,10,33,26.60
2016,08,18,10,34,26.70
2016,08,18,10,35,26.70
2016,08,18,10,36,26.80
2016,08,18,10,37,26.90
2016,08,18,10,38,26.90
2016,08,18,10,39,26.90
2016,08,18,10,40,27.00
2016,08,18,10,41,27.00
2016,08,18,10,42,27.10
2016,08,18,10,43,27.10
2016,08,18,10,44,27.20
2016,08,18,10,45,27.20
2016,08,18,10,46,27.30
2016,08,18,10,47,27.30
2016,08,18,10,48,27.30
2016,08,18,10,49,27.30
2016,08,18,10,50,27.30
2016,08,18,10,51,27.40
2016,08,18,10,52,27.40
2016,08,18,10,53,27.50
2016,08,18,10,54,27.50
2016,08,18,10,55,27.50
2016,08,18,10,56,27.50
2016,08,18,10,57,27.50
2016,08,18,10,58,27.50
2016,08,18,10,59,27.60
2016,08,18,11,00,27.60
2016,08,18,11,01,27.70
2016,08,18,11,02,27.70
2016,08,18,11,03,27.80
2016,08,18,11,04,27.90
2016,08,18,11,05,27.90
2016,08,18,11,06,27.90
2016,08,18,11,07,28.00
2016,08,18,11,08,28.00
2016,08,18,11,09,28.10
2016,08,18,11,10,28.20
2016,08,18,11,11,28.20
2016,08,18,11,12,28.10
2016,08,18,11,13,28.10
2016,08,18,11,14,28.10
2016,08,18,11,15,28.20
2016,08,18,11,16,28.20
2016,08,18,11,17,28.30
2016,08,18,11,18,28.40
2016,08,18,11,19,28.40
2016,08,18,11,20,28.50
2016,08,18,11,21,28.50
2016,08,18,11,22,28.40
2016,08,18,11,23,28.40
2016,08,18,11,24,28.40
2016,08,18,11,25,28.30
2016,08,18,11,26,28.30
2016,08,18,11,27,28.30
2016,08,18,11,28,28.40
2016,08,18,11,29,28.40
2016,08,18,11,30,28.50
2016,08,18,11,31,28.60
2016,08,18,11,32,28.70
2016,08,18,11,33,28.80
2016,08,18,11,34,28.80
2016,08,18,11,35,28.80
2016,08,18,11,36,28.80
2016,08,18,11,37,28.80
2016,08,18,11,38,28.90
2016,08,18,11,39,28.90
2016,08,18,11,40,29.00
2016,08,18,11,41,29.10
2016,08,18,11,42,29.10
2016,08,18,11,43,29.10
2016,08,18,11,44,29.00
2016,08,18,11,45,29.00
2016,08,18,11,46,29.00
2016,08,18,11,47,29.00
2016,08,18,11,48,29.00
2016,08,18,11,49,28.90
2016,08,18,11,50,28.90
2016,08,18,11,51,28.90
2016,08,18,11,52,28.90
2016,08,18,11,53,29.00
2016,08,18,11,54,29.00
2016,08,18,11,55,29.00
2016,08,18,11,56,29.00
2016,08,18,11,57,29.10
2016,08,18,11,58,29.10
2016,08,18,11,59,29.10
2016,08,18,12,00,29.10
2016,08,18,12,01,29.10
2016,08,18,12,02,29.20
2016,08,18,12,03,29.20
2016,08,18,12,04,29.20
2016,08,18,12,05,29.20
2016,08,18,12,06,29.30
2016,08,18,12,07,29.30
2016,08,18,12,08,29.30
2016,08,18,12,09,29.30
2016,08,18,12,10,29.40
2016,08,18,12,11,29.40
2016,08,18,12,12,29.30
2016,08,18,12,13,29.20
2016,08,18,12,14,29.20
2016,08,18,12,15,29.10
2016,08,18,12,16,29.10
2016,08,18,12,17,29.10
2016,08,18,12,18,29.10
2016,08,18,12,19,29.10
2016,08,18,12,20,29.10
2016,08,18,12,21,29.20
2016,08,18,12,22,29.20
2016,08,18,12,23,29.20
2016,08,18,12,24,29.30
2016,08,18,12,25,29.40
2016,08,18,12,26,29.50
2016,08,18,12,27,29.50
2016,08,18,12,28,29.60
2016,08,18,12,29,29.70
2016,08,18,12,30,29.80
2016,08,18,12,31,29.90
2016,08,18,12,32,29.90
2016,08,18,12,33,30.00
2016,08,18,12,34,30.00
2016,08,18,12,35,29.90
2016,08,18,12,36,29.80
2016,08,18,12,37,29.70
2016,08,18,12,38,29.70
2016,08,18,12,39,29.80
2016,08,18,12,40,29.80
2016,08,18,12,41,29.80
2016,08,18,12,42,29.80
2016,08,18,12,43,29.80
2016,08,18,12,44,29.80
2016,08,18,12,45,29.80
2016,08,18,12,46,29.80
2016,08,18,12,47,29.90
2016,08,18,12,48,30.00
2016,08,18,12,49,30.10
2016,08,18,12,50,30.20
2016,08,18,12,51,30.30
2016,08,18,12,52,30.30
2016,08,18,12,53,30.40
2016,08,18,12,54,30.30
2016,08,18,12,55,30.30
2016,08,18,12,56,30.30
2016,08,18,12,57,30.30
2016,08,18,12,58,30.30
2016,08,18,12,59,30.30
2016,08,18,13,00,30.30
2016,08,18,13,01,30.30
2016,08,18,13,02,30.40
2016,08,18,13,03,30.50
2016,08,18,13,04,30.60
2016,08,18,13,05,30.70
2016,08,18,13,06,30.60
2016,08,18,13,07,30.60
2016,08,18,13,08,30.60
2016,08,18,13,09,30.60
2016,08,18,13,10,30.50
2016,08,18,13,11,30.60
2016,08,18,13,12,30.60
2016,08,18,13,13,30.60
2016,08,18,13,14,30.60
2016,08,18,13,15,30.60
2016,08,18,13,16,30.50
2016,08,18,13,17,30.40
2016,08,18,13,18,30.40
2016,08,18,13,19,30.40
2016,08,18,13,20,30.30
2016,08,18,13,21,30.20
2016,08,18,13,22,30.00
2016,08,18,13,23,29.70
2016,08,18,13,24,29.60
2016,08,18,13,25,29.40
2016,08,18,13,26,29.30
2016,08,18,13,27,29.30
2016,08,18,13,28,29.20
2016,08,18,13,29,29.20
2016,08,18,13,30,29.10
2016,08,18,13,31,29.10
2016,08,18,13,32,29.10
2016,08,18,13,33,29.20
2016,08,18,13,34,29.20
2016,08,18,13,35,29.20
2016,08,18,13,36,29.20
2016,08,18,13,37,29.10
2016,08,18,13,38,29.20
2016,08,18,13,39,29.20
2016,08,18,13,40,29.20
2016,08,18,13,41,29.20
2016,08,18,13,42,29.30
2016,08,18,13,43,29.30
2016,08,18,13,44,29.30
2016,08,18,13,45,29.30
2016,08,18,13,46,29.30
2016,08,18,13,47,29.30
2016,08,18,13,48,29.30
2016,08,18,13,49,29.40
2016,08,18,13,50,29.40
2016,08,18,13,51,29.50
2016,08,18,13,52,29.60
2016,08,18,13,53,29.60
2016,08,18,13,54,29.70
2016,08,18,13,55,29.70
2016,08,18,13,56,29.80
2016,08,18,13,57,29.90
2016,08,18,13,58,29.90
2016,08,18,13,59,29.90
2016,08,18,14,00,29.90
2016,08,18,14,01,29.90
2016,08,18,14,02,30.00
2016,08,18,14,03,30.10
2016,08,18,14,04,30.10
2016,08,18,14,05,30.20
2016,08,18,14,06,30.20
2016,08,18,14,07,30.30
2016,08,18,14,08,30.30
2016,08,18,14,09,30.40
2016,08,18,14,10,30.40
2016,08,18,14,11,30.40
2016,08,18,14,12,30.40
2016,08,18,14,13,30.50
2016,08,18,14,14,30.60
2016,08,18,14,15,30.60
2016,08,18,14,16,30.70
2016,08,18,14,17,30.60
2016,08,18,14,18,30.50
2016,08,18,14,19,30.40
2016,08,18,14,20,30.30
2016,08,18,14,21,30.30
2016,08,18,14,22,30.20
2016,08,18,14,23,30.20
2016,08,18,14,24,30.10
2016,08,18,14,25,30.10
2016,08,18,14,26,30.10
2016,08,18,14,27,30.10
2016,08,18,14,28,30.20
2016,08,18,14,29,30.30
2016,08,18,14,30,30.40
2016,08,18,14,31,30.50
2016,08,18,14,32,30.60
2016,08,18,14,33,30.70
2016,08,18,14,34,30.80
2016,08,18,14,35,30.90
2016,08,18,14,36,31.00
2016,08,18,14,37,31.10
2016,08,18,14,38,31.00
2016,08,18,14,39,30.90
2016,08,18,14,40,30.80
2016,08,18,14,41,30.80
2016,08,18,14,42,30.80
2016,08,18,14,43,30.80
2016,08,18,14,44,30.80
2016,08,18,14,45,30.80
2016,08,18,14,46,30.70
2016,08,18,14,47,30.60
2016,08,18,14,48,30.50
2016,08,18,14,49,30.40
2016,08,18,14,50,30.30
2016,08,18,14,51,30.30
2016,08,18,14,52,30.30
2016,08,18,14,53,30.40
2016,08,18,14,54,30.40
2016,08,18,14,55,30.40
2016,08,18,14,56,30.40
2016,08,18,14,57,30.40
2016,08,18,14,58,30.40
2016,08,18,14,59,30.40
2016,08,18,15,00,30.40
2016,08,18,15,01,30.40
2016,08,18,15,02,30.40
2016,08,18,15,03,30.50
2016,08,18,15,04,30.50
2016,08,18,15,05,30.60
2016,08,18,15,06,30.60
2016,08,18,15,07,30.70
2016,08,18,15,08,30.70
2016,08,18,15,09,30.80
2016,08,18,15,10,30.90
2016,08,18,15,11,31.00
2016,08,18,15,12,31.10
2016,08,18,15,13,31.20
2016,08,18,15,14,31.30
2016,08,18,15,15,31.30
2016,08,18,15,16,31.30
2016,08,18,15,17,31.20
2016,08,18,15,18,31.10
2016,08,18,15,19,31.10
2016,08,18,15,20,31.00
2016,08,18,15,21,31.00
2016,08,18,15,22,30.90
2016,08,18,15,23,30.90
2016,08,18,15,24,30.90
2016,08,18,15,25,30.80
2016,08,18,15,26,30.80
2016,08,18,15,27,30.70
2016,08,18,15,28,30.70
2016,08,18,15,29,30.70
2016,08,18,15,30,30.70
2016,08,18,15,31,30.80
2016,08,18,15,32,30.80
2016,08,18,15,33,30.80
2016,08,18,15,34,30.80
2016,08,18,15,35,30.80
2016,08,18,15,36,30.80
2016,08,18,15,37,30.90
2016,08,18,15,38,31.00
2016,08,18,15,39,31.00
2016,08,18,15,40,31.10
2016,08,18,15,41,31.20
2016,08,18,15,42,31.30
2016,08,18,15,43,31.30
2016,08,18,15,44,31.40
2016,08,18,15,45,31.40
2016,08,18,15,46,31.30
2016,08,18,15,47,31.30
2016,08,18,15,48,31.30
2016,08,18,15,49,31.30
2016,08,18,15,50,31.30
2016,08,18,15,51,31.30
2016,08,18,15,52,31.20
2016,08,18,15,53,31.20
2016,08,18,15,54,31.10
2016,08,18,15,55,31.10
2016,08,18,15,56,31.10
2016,08,18,15,57,31.10
2016,08,18,15,58,31.10
2016,08,18,15,59,31.10
2016,08,18,16,00,31.10
2016,08,18,16,01,31.10
2016,08,18,16,02,31.10
2016,08,18,16,03,31.10
2016,08,18,16,04,31.10
2016,08,18,16,05,31.20
2016,08,18,16,06,31.20
2016,08,18,16,07,31.20
2016,08,18,16,08,31.10
2016,08,18,16,09,31.10
2016,08,18,16,10,31.20
2016,08,18,16,11,31.20
2016,08,18,16,12,31.20
2016,08,18,16,13,31.30
2016,08,18,16,14,31.30
2016,08,18,16,15,31.30
2016,08,18,16,16,31.40
2016,08,18,16,17,31.40
2016,08,18,16,18,31.40
2016,08,18,16,19,31.40
2016,08,18,16,20,31.50
2016,08,18,16,21,31.60
2016,08,18,16,22,31.70
2016,08,18,16,23,31.70
2016,08,18,16,24,31.80
2016,08,18,16,25,31.90
2016,08,18,16,26,32.00
2016,08,18,16,27,32.10
2016,08,18,16,28,32.20
2016,08,18,16,29,32.20
2016,08,18,16,30,32.30
2016,08,18,16,31,32.30
2016,08,18,16,32,32.40
2016,08,18,16,33,32.40
2016,08,18,16,34,32.30
2016,08,18,16,35,32.30
2016,08,18,16,36,32.20
2016,08,18,16,37,32.20
2016,08,18,16,38,32.30
2016,08,18,16,39,32.20
2016,08,18,16,40,32.20
2016,08,18,16,41,32.20
2016,08,18,16,42,32.20
2016,08,18,16,43,32.20
2016,08,18,16,44,32.10
2016,08,18,16,45,32.10
2016,08,18,16,46,32.10
2016,08,18,16,47,32.00
2016,08,18,16,48,32.00
2016,08,18,16,49,31.90
2016,08,18,16,50,31.90
2016,08,18,16,51,31.90
2016,08,18,16,52,31.90
2016,08,18,16,53,32.00
2016,08,18,16,54,32.00
2016,08,18,16,55,31.90
2016,08,18,16,56,31.90
2016,08,18,16,57,31.90
2016,08,18,16,58,31.90
2016,08,18,16,59,31.90
2016,08,18,17,00,31.90
2016,08,18,17,01,31.90
2016,08,18,17,02,31.90
2016,08,18,17,03,31.90
2016,08,18,17,04,31.80
2016,08,18,17,05,31.80
2016,08,18,17,06,31.70
2016,08,18,17,07,31.70
2016,08,18,17,08,31.70
2016,08,18,17,09,31.70
2016,08,18,17,10,31.80
2016,08,18,17,11,31.80
2016,08,18,17,12,31.90
2016,08,18,17,13,31.90
2016,08,18,17,14,32.00
2016,08,18,17,15,32.00
2016,08,18,17,16,31.90
2016,08,18,17,17,31.90
2016,08,18,17,18,31.90
2016,08,18,17,19,31.90